Temp
7 8 8 8 8 8 8 8 9 9 10 10 11 11 11 12 12 11 11 12 12 14 14 15 15 15 16 17 17 18 20 21 22 22 23 21 21 19 18 19 18 18 18 17 16
7 7 7 8 8 8 8 8 8 9 9 10 10 11 12 11 11 11 12 12 13 13 13 14 15 15 17 17 18 19 20 21 23 23 23 22 21 21 19 20 19 18 16 17 18
7 7 7 7 7 8 7 8 8 8 9 9 10 10 11 12 10 10 11 12 12 12 12 13 14 15 17 17 18 19 19 22 22 22 22 22 21 20 20 21 21 22 21 15 16
7 7 7 7 7 7 8 8 8 8 8 9 9 9 10 10 11 12 12 13 12 12 12 13 14 15 17 18 18 17 19 20 21 20 19 20 21 21 20 20 20 20 19 17 15
6 7 7 7 7 7 7 7 7 8 8 8 9 9 9 8 10 11 11 11 12 11 12 13 14 15 17 18 18 17 18 20 19 18 17 18 18 19 19 20 20 19 19 18 16
6 6 6 7 7 7 7 7 7 7 8 8 8 9 8 9 10 10 11 10 10 10 11 12 13 14 15 16 17 17 17 18 18 18 18 17 18 19 18 18 20 19 18 18 17
5 6 6 7 6 6 7 7 7 7 7 7 8 8 8 9 10 10 11 11 10 10 10 12 12 12 11 12 12 14 15 18 18 17 18 17 17 18 18 17 18 19 18 19 18
4 5 6 6 6 6 6 7 7 7 7 7 7 7 8 8 8 9 9 9 10 10 10 10 10 10 11 10 11 13 15 16 19 18 18 16 17 20 19 18 18 19 19 19 18
4 4 5 6 6 6 6 7 7 6 7 6 6 6 7 8 8 9 10 10 9 10 9 10 10 9 9 11 11 11 12 15 16 18 18 17 17 20 19 19 19 19 19 20 20
3 4 5 5 6 6 6 6 6 6 5 5 6 6 6 8 8 9 9 9 9 8 9 9 9 10 10 10 11 11 12 14 15 17 16 17 17 18 19 18 19 19 20 20 20
3 3 4 5 5 6 6 5 4 5 4 6 6 8 8 8 8 8 8 9 8 8 9 9 10 10 12 11 13 14 13 15 17 17 13 16 17 18 19 18 19 18 19 19 20
2 3 3 4 5 5 6 5 5 6 5 5 6 7 7 8 7 8 8 9 8 9 10 10 9 13 13 13 11 12 12 11 14 16 14 15 16 18 19 19 19 19 19 19 19
2 3 3 4 4 4 5 5 5 6 5 4 5 6 6 7 9 9 8 9 10 10 9 10 13 14 14 13 12 12 10 11 12 15 16 15 15 17 18 18 18 18 18 19 19
2 2 2 3 3 3 3 5 5 6 5 4 4 6 6 7 8 9 8 10 10 10 11 10 12 12 13 13 13 12 13 12 11 12 12 16 13 18 20 21 21 19 18 18 19
1 2 2 3 2 3 3 4 5 5 6 4 4 6 6 8 8 7 8 9 11 11 11 11 12 12 11 12 13 13 14 11 10 10 10 12 11 15 18 19 20 21 19 19 18
1 2 2 2 2 3 3 3 4 3 6 5 5 6 7 7 9 7 7 9 10 11 12 11 13 13 14 14 13 12 10 10 10 9 10 12 14 16 18 19 20 21 20 20 19
1 2 2 2 2 2 3 3 3 5 4 4 5 6 8 7 8 8 8 8 9 7 9 11 11 12 12 12 9 10 9 9 10 9 11 16 14 16 19 20 21 21 21 20 20
2 2 2 2 2 2 3 3 5 4 5 6 7 6 7 7 8 8 8 7 9 10 10 9 9 12 12 12 12 8 8 10 11 11 14 14 13 17 19 19 19 19 19 19 19
2 1 1 2 2 2 3 4 5 5 6 7 7 5 6 8 9 8 8 8 10 10 10 10 10 14 13 13 13 12 8 10 9 10 9 12 16 18 19 19 18 18 18 18 18
1 1 1 2 2 2 1 5 3 6 8 8 6 7 6 6 8 8 9 10 9 10 11 12 10 13 13 13 13 13 14 9 8 10 10 13 16 18 19 19 19 19 18 18 18
1 1 1 2 1 1 2 3 2 7 8 8 8 7 7 7 9 7 9 11 10 10 11 11 10 11 12 10 11 11 11 12 11 11 12 13 16 20 20 21 21 21 19 19 18
1 1 1 1 1 0 3 2 5 7 9 9 9 8 7 8 7 8 9 10 10 11 9 10 9 9 10 12 13 13 11 11 9 9 10 12 14 19 19 19 18 18 17 18 17
1 1 1 1 2 2 1 2 7 8 8 8 7 9 9 8 7 9 10 11 10 10 10 10 7 7 8 10 11 7 11 11 10 11 10 10 13 18 19 20 19 17 17 16 16
1 2 1 1 1 3 2 3 5 8 7 8 8 9 9 8 9 8 9 10 9 9 8 10 9 9 9 11 12 8 9 11 11 9 9 10 13 15 17 19 19 19 18 17 17
1 1 0 1 1 4 4 3 4 5 6 7 7 9 8 7 7 7 8 8 9 9 9 8 5 9 10 11 12 12 9 7 7 9 9 12 13 14 15 16 18 18 18 17 17
1 1 1 1 1 3 4 4 5 4 6 6 8 8 8 7 7 7 8 8 8 9 8 7 5 4 5 8 8 9 10 10 10 9 8 7 7 11 12 12 14 15 16 16 16
3 3 4 2 2 3 4 4 5 5 4 8 8 8 8 8 9 9 9 8 9 9 8 8 6 5 6 8 8 6 8 9 10 11 11 10 12 13 14 15 14 14 15 15 15
Height
1479 1482 1485 1487 1489 1493 1496 1499 1503 1507 1511 1515 1519 1523 1526 1529 1531 1532 1532 1536 1536 1537 1540 1539 1539 1541 1543 1544 1544 1544 1541 1535 1530 1531 1528 1534 1538 1540 1541 1541 1540 1541 1543 1543 1541
1473 1477 1480 1483 1486 1489 1492 1495 1499 1503 1508 1512 1516 1520 1524 1528 1529 1526 1531 1531 1534 1536 1540 1540 1540 1540 1541 1542 1543 1540 1536 1531 1528 1529 1527 1530 1536 1537 1539 1540 1538 1539 1541 1542 1539
1467 1471 1475 1478 1482 1486 1489 1492 1496 1500 1504 1509 1513 1517 1521 1527 1529 1518 1523 1528 1532 1535 1538 1539 1540 1541 1539 1540 1540 1538 1534 1530 1529 1530 1530 1530 1534 1536 1535 1534 1535 1535 1536 1538 1537
1461 1465 1469 1473 1478 1482 1485 1489 1492 1497 1501 1506 1511 1515 1519 1526 1526 1517 1518 1525 1529 1532 1536 1538 1537 1539 1538 1535 1538 1538 1535 1533 1531 1532 1535 1533 1532 1530 1531 1532 1534 1535 1531 1537 1537
1454 1459 1464 1468 1473 1478 1482 1486 1490 1494 1498 1503 1508 1512 1517 1520 1514 1517 1517 1520 1525 1530 1534 1537 1536 1536 1533 1534 1535 1535 1534 1532 1533 1534 1536 1535 1533 1533 1530 1531 1533 1532 1530 1534 1535
1447 1453 1458 1463 1468 1473 1478 1483 1487 1491 1496 1500 1505 1509 1512 1510 1513 1518 1518 1519 1522 1526 1530 1534 1535 1535 1533 1535 1535 1534 1533 1532 1532 1531 1533 1533 1529 1531 1529 1529 1528 1530 1528 1528 1532
1440 1445 1451 1457 1463 1468 1474 1479 1484 1488 1494 1498 1502 1505 1508 1505 1511 1515 1515 1519 1521 1524 1526 1531 1532 1535 1535 1537 1538 1536 1534 1529 1528 1531 1530 1531 1524 1523 1527 1528 1526 1525 1526 1524 1526
1433 1438 1444 1452 1457 1463 1470 1476 1482 1487 1491 1496 1501 1503 1501 1504 1508 1509 1513 1517 1518 1522 1526 1528 1531 1532 1534 1537 1538 1538 1534 1528 1521 1526 1528 1532 1514 1517 1520 1522 1520 1520 1519 1520 1522
1425 1432 1438 1445 1452 1458 1465 1473 1479 1485 1489 1494 1499 1500 1500 1500 1501 1507 1511 1514 1517 1520 1521 1525 1528 1530 1531 1533 1537 1536 1531 1525 1524 1521 1523 1525 1513 1512 1515 1515 1514 1514 1513 1514 1516
1418 1425 1432 1439 1446 1453 1461 1470 1478 1482 1487 1493 1496 1503 1495 1492 1497 1503 1508 1513 1515 1519 1522 1524 1527 1523 1526 1525 1523 1527 1531 1525 1524 1517 1519 1516 1512 1513 1511 1511 1509 1507 1507 1506 1507
1409 1417 1425 1433 1439 1448 1457 1467 1475 1477 1477 1477 1481 1483 1484 1491 1496 1498 1505 1510 1515 1518 1516 1519 1522 1518 1515 1520 1522 1518 1522 1515 1507 1514 1523 1514 1508 1505 1505 1504 1502 1502 1502 1500 1500
1402 1410 1418 1427 1434 1441 1448 1449 1449 1460 1472 1476 1481 1487 1486 1489 1493 1496 1502 1508 1510 1509 1513 1518 1516 1505 1515 1517 1523 1519 1521 1522 1517 1513 1519 1513 1503 1498 1495 1494 1494 1493 1492 1493 1494
1394 1402 1411 1420 1430 1436 1438 1439 1459 1461 1468 1474 1477 1482 1484 1489 1488 1490 1497 1500 1502 1504 1506 1508 1494 1509 1510 1513 1519 1517 1523 1522 1520 1512 1508 1508 1497 1494 1482 1486 1485 1482 1482 1484 1483
1387 1395 1405 1415 1428 1427 1430 1437 1448 1459 1461 1466 1473 1474 1481 1484 1487 1487 1491 1498 1502 1498 1501 1506 1504 1508 1505 1505 1510 1510 1509 1518 1520 1524 1517 1502 1498 1476 1465 1462 1465 1469 1472 1473 1473
1380 1388 1398 1408 1412 1418 1427 1436 1443 1454 1439 1456 1463 1468 1476 1479 1480 1486 1490 1495 1490 1493 1500 1492 1496 1499 1506 1501 1506 1500 1508 1515 1519 1520 1520 1508 1514 1465 1470 1460 1458 1458 1462 1465 1465
1373 1382 1392 1401 1409 1415 1427 1437 1441 1433 1419 1439 1449 1457 1467 1473 1477 1483 1487 1491 1493 1494 1494 1491 1493 1493 1489 1497 1502 1507 1515 1517 1517 1522 1514 1499 1495 1461 1458 1448 1452 1451 1453 1456 1456
1367 1377 1386 1394 1395 1411 1421 1429 1433 1413 1421 1435 1437 1447 1453 1464 1473 1476 1481 1486 1486 1495 1489 1486 1487 1492 1493 1494 1504 1508 1515 1513 1511 1513 1497 1475 1486 1462 1442 1444 1444 1444 1446 1448 1449
1362 1371 1379 1386 1397 1406 1412 1413 1413 1408 1413 1424 1431 1445 1449 1458 1466 1471 1476 1482 1482 1478 1480 1488 1489 1482 1482 1487 1486 1500 1506 1497 1492 1490 1473 1465 1473 1447 1439 1438 1440 1441 1443 1443 1443
1357 1364 1373 1380 1390 1396 1401 1384 1387 1400 1408 1414 1431 1444 1448 1452 1457 1464 1466 1468 1470 1473 1476 1475 1476 1469 1477 1479 1489 1487 1498 1494 1501 1489 1499 1479 1451 1441 1436 1433 1436 1435 1436 1436 1437
1349 1360 1365 1374 1384 1389 1391 1376 1385 1392 1399 1411 1414 1427 1434 1442 1448 1453 1457 1455 1464 1469 1472 1467 1472 1467 1468 1479 1482 1482 1481 1491 1492 1481 1478 1461 1448 1432 1425 1430 1430 1431 1431 1430 1432
1348 1356 1360 1371 1379 1382 1376 1384 1396 1394 1399 1404 1405 1411 1422 1433 1437 1447 1447 1449 1459 1465 1471 1473 1473 1470 1467 1474 1473 1477 1476 1475 1476 1473 1468 1460 1437 1420 1424 1422 1416 1419 1423 1426 1427
1330 1349 1356 1365 1371 1370 1375 1384 1387 1389 1393 1401 1405 1407 1415 1427 1437 1442 1443 1448 1454 1458 1463 1469 1474 1473 1470 1467 1466 1465 1467 1471 1474 1472 1469 1456 1433 1423 1422 1424 1423 1420 1420 1422 1424
1329 1346 1353 1360 1359 1365 1375 1380 1380 1386 1390 1401 1403 1405 1413 1426 1444 1437 1442 1449 1454 1456 1458 1464 1472 1475 1471 1467 1464 1474 1460 1464 1467 1463 1460 1462 1440 1424 1424 1423 1419 1420 1422 1421 1420
1331 1340 1347 1355 1357 1363 1369 1376 1379 1387 1390 1399 1403 1404 1417 1427 1431 1436 1443 1448 1454 1456 1459 1459 1460 1461 1457 1448 1449 1464 1460 1458 1457 1463 1456 1451 1440 1413 1421 1416 1415 1419 1419 1417 1417
1330 1332 1336 1346 1357 1361 1368 1374 1375 1385 1394 1398 1404 1405 1411 1427 1433 1434 1441 1448 1453 1455 1457 1461 1466 1458 1448 1450 1447 1446 1453 1462 1462 1452 1454 1439 1435 1410 1417 1421 1421 1420 1416 1414 1415
1327 1328 1338 1347 1357 1362 1368 1376 1375 1383 1389 1395 1397 1406 1408 1415 1423 1430 1434 1441 1443 1449 1453 1460 1462 1467 1465 1456 1455 1452 1448 1447 1444 1446 1454 1456 1448 1421 1416 1426 1419 1421 1419 1413 1409
1323 1328 1331 1352 1358 1364 1366 1374 1379 1380 1396 1392 1396 1402 1411 1418 1423 1427 1434 1438 1438 1442 1448 1451 1455 1461 1453 1447 1450 1457 1439 1440 1435 1432 1433 1434 1421 1409 1407 1414 1420 1418 1410 1403 1402
Wind_Speed
30 27 25 23 21 21 19 30 30 32 29 27 29 26 20 20 22 21 20 17 16 22 10 11 10 7 6 7 6 4 9 13 18 15 14 8 5 5 4 7 5 5 3 3 10
32 30 27 26 24 24 20 22 28 28 30 27 25 26 27 23 21 28 22 24 24 19 17 8 9 8 11 9 6 10 11 18 16 16 12 13 12 8 6 10 9 8 8 7 9
30 32 31 28 28 25 24 22 26 25 29 27 24 24 27 27 20 29 28 29 24 19 13 10 8 9 13 11 12 9 16 15 19 16 17 19 16 9 8 10 11 13 12 11 13
33 30 32 31 29 28 25 23 22 27 25 28 24 24 23 22 10 6 21 30 24 20 15 12 11 13 11 16 16 11 17 22 17 14 13 18 23 28 18 20 7 6 3 13 17
36 33 30 32 32 29 28 26 24 27 25 25 25 24 21 22 30 2 8 17 22 21 17 17 17 16 16 14 20 13 21 16 18 15 13 13 15 19 23 23 20 9 10 13 17
37 35 33 30 33 30 30 28 23 24 27 23 23 23 23 23 17 18 3 14 20 24 22 15 12 11 8 9 12 7 11 22 17 18 17 13 21 19 13 16 19 15 14 13 18
35 38 34 31 31 31 31 28 25 23 26 22 23 23 24 26 10 19 26 9 20 24 21 28 16 11 7 1 5 8 12 12 20 18 14 12 21 23 23 23 19 23 20 17 19
35 35 35 34 31 33 32 30 28 25 24 22 22 20 17 19 14 20 16 20 13 17 22 22 26 16 12 5 2 6 10 16 18 19 18 10 24 17 21 29 31 29 26 22 20
37 38 36 33 34 33 33 31 27 24 21 22 21 16 9 19 27 20 20 20 16 14 16 16 19 12 10 8 4 8 11 18 20 22 13 16 19 19 25 25 25 28 32 33 31
40 38 35 33 34 34 34 31 24 22 19 18 18 12 13 22 18 24 20 21 15 13 10 11 12 5 7 8 11 7 10 16 17 13 14 20 23 21 22 19 21 25 28 31 35
39 38 38 38 34 35 35 30 21 13 30 22 15 16 1 13 19 23 23 22 19 14 12 11 6 10 11 15 19 15 12 20 19 16 2 19 22 23 28 30 30 30 30 27 30
39 38 37 37 37 36 39 43 48 13 17 25 13 25 7 18 14 21 23 22 18 12 19 8 14 27 17 12 8 18 15 17 18 14 10 19 24 23 25 25 32 31 33 33 31
39 39 37 38 40 36 41 54 39 23 8 13 19 26 11 16 19 24 28 28 20 21 14 21 26 20 21 19 15 20 14 13 17 11 17 17 25 25 30 34 36 36 34 35 34
37 38 37 37 35 43 38 37 44 29 6 10 9 16 14 10 8 16 27 27 12 17 20 16 24 17 20 25 21 21 19 18 16 11 11 10 12 20 24 21 22 29 31 36 36
36 37 37 41 40 40 27 37 52 29 9 18 10 15 24 19 16 10 19 28 24 19 10 16 15 18 20 19 14 22 14 11 10 14 10 16 7 16 19 24 22 21 28 30 33
36 37 35 41 42 36 36 40 39 6 8 12 18 20 22 25 12 13 14 17 16 18 20 21 10 15 26 23 18 4 5 7 10 12 11 23 20 14 17 24 23 24 27 28 27
30 34 38 41 48 44 32 44 8 7 13 9 15 24 27 15 16 13 15 19 13 14 22 25 24 17 10 15 6 8 7 4 4 5 7 17 17 23 15 17 19 17 16 21 22
28 38 42 43 44 41 42 18 15 10 10 14 18 23 21 22 18 18 17 17 22 20 10 18 18 26 21 20 22 15 10 4 8 4 8 11 9 13 18 21 31 31 22 24 21
27 34 42 43 43 40 36 18 10 19 12 21 22 21 15 22 13 18 22 22 21 24 15 14 20 11 22 26 21 11 11 21 11 18 6 7 17 16 15 14 13 18 21 24 25
34 36 41 42 42 43 6 17 5 15 17 25 14 18 18 25 21 21 21 18 22 26 23 14 11 18 14 21 24 26 15 8 7 6 8 12 21 14 9 14 12 14 20 22 20
35 21 30 41 40 35 11 6 4 24 26 19 17 17 17 22 22 21 17 9 24 21 25 18 13 6 11 16 23 18 21 20 12 12 14 15 15 16 19 19 20 17 21 14 13
25 5 25 39 13 5 15 9 12 24 21 5 12 12 20 25 21 22 19 19 12 24 23 22 7 12 17 12 14 19 23 23 5 7 9 18 21 13 4 6 7 13 6 9 10
24 6 25 42 10 8 6 11 19 27 20 12 7 9 18 18 12 18 17 16 13 17 14 15 9 9 6 10 12 9 19 20 18 19 19 7 13 16 19 19 18 9 10 14 19
13 5 13 25 8 15 10 12 18 20 7 6 14 19 21 19 6 18 15 14 17 13 7 10 15 14 15 14 6 6 16 21 21 15 12 17 25 32 25 18 11 18 13 13 19
10 3 5 9 4 15 8 11 22 11 6 14 9 20 21 14 9 10 18 13 15 16 17 8 5 15 23 20 21 20 15 11 11 19 18 25 27 36 27 23 25 29 28 30 30
11 5 8 6 24 16 12 14 19 8 7 10 16 22 13 15 10 16 16 15 10 16 13 10 4 6 5 14 16 20 23 23 23 22 18 23 27 34 38 36 38 32 30 32 36
13 16 19 17 16 9 10 12 14 13 8 14 23 16 13 14 10 16 11 6 6 13 16 9 6 2 5 8 13 10 23 23 23 23 22 22 28 30 29 20 23 29 35 35 37
Wind_Direction
237 236 234 236 236 233 238 227 229 227 226 226 226 229 234 243 247 246 243 241 237 248 271 257 249 254 262 247 234 265 253 246 243 232 233 147 218 202 232 248 216 206 262 175 179
236 235 234 233 233 228 232 232 226 229 225 226 227 228 228 238 246 244 238 242 247 251 248 258 244 245 237 245 239 232 239 250 257 250 252 222 229 203 198 223 228 229 233 207 209
236 234 233 234 232 230 228 230 225 227 223 222 222 225 224 232 252 251 239 241 244 245 238 230 230 230 234 235 230 242 242 255 258 268 272 267 221 221 235 246 247 247 215 207 216
238 236 232 231 232 230 229 223 226 221 224 220 217 221 220 218 229 274 246 245 244 240 236 227 219 224 231 227 232 253 246 254 266 278 284 268 263 257 243 250 268 264 201 209 211
240 236 234 230 230 229 230 223 221 220 221 219 214 218 210 216 225 323 228 220 225 223 218 220 220 223 230 243 240 238 260 252 260 262 267 268 261 263 263 258 249 245 231 216 224
237 236 232 230 227 227 227 225 221 218 219 216 208 214 212 230 221 236 232 210 205 208 209 197 218 209 243 244 254 313 280 267 250 260 255 265 262 257 261 258 249 241 227 223 230
233 233 233 229 225 223 224 225 222 216 215 216 207 210 217 226 217 218 224 230 219 216 214 219 209 195 162 332 302 289 275 263 249 248 262 270 262 250 257 257 257 251 248 239 231
231 230 229 227 224 219 219 220 221 214 212 216 209 208 224 230 230 208 209 213 225 216 217 229 227 219 213 205 291 302 288 256 243 238 238 237 260 260 249 247 253 249 250 240 234
232 232 227 224 221 217 214 215 216 216 210 213 211 203 223 227 215 213 206 202 207 206 203 211 221 200 179 215 221 220 247 246 265 268 229 216 268 260 251 252 256 254 249 248 242
233 230 227 222 216 214 210 209 210 209 200 201 207 205 226 217 212 206 210 211 193 184 161 181 191 201 198 211 208 203 226 242 248 244 219 248 252 261 251 241 255 256 256 249 246
231 228 229 226 216 211 204 199 181 184 187 187 194 203 48 212 198 195 202 196 197 186 206 212 219 231 202 217 239 230 254 257 257 243 293 263 259 260 254 253 253 253 255 253 250
229 227 224 222 215 208 207 192 195 197 179 197 205 202 215 182 184 204 197 193 200 207 207 203 229 226 238 229 230 241 248 259 267 259 208 253 264 267 258 254 253 251 249 249 250
226 224 220 215 212 214 209 206 189 176 154 189 197 190 165 185 209 199 194 202 204 214 199 222 233 235 234 227 234 236 233 243 246 245 242 271 274 261 256 253 251 248 245 250 245
222 221 213 210 212 219 229 199 187 173 163 160 202 181 169 174 214 202 200 200 222 219 215 223 240 247 222 230 226 245 235 232 241 261 244 204 276 268 257 251 231 237 240 243 245
218 216 209 206 205 212 213 195 183 188 206 154 163 184 178 184 130 193 199 206 220 212 207 224 224 224 237 235 240 250 248 222 243 242 259 239 261 261 255 256 250 240 233 242 245
212 211 206 206 208 214 209 194 178 192 192 156 152 175 168 200 196 144 177 203 223 228 228 243 235 238 231 236 230 226 222 238 250 247 251 238 225 257 241 252 253 247 240 246 245
204 207 207 202 205 202 196 180 196 225 145 144 167 169 176 173 175 172 181 190 188 199 222 226 233 231 257 223 159 196 156 221 215 212 235 232 227 245 270 261 267 264 243 246 248
226 216 209 211 206 201 198 176 206 131 166 168 160 164 179 161 190 187 177 196 214 209 214 221 232 223 216 224 214 206 209 231 215 199 249 209 239 232 234 254 254 259 258 255 255
213 205 205 206 200 199 182 195 181 154 156 155 142 169 183 181 172 183 198 205 206 208 211 200 232 231 211 226 230 233 213 235 267 276 262 227 259 257 263 262 251 253 251 251 256
190 188 202 202 199 197 215 188 121 167 156 148 147 178 177 180 185 191 190 210 211 213 219 239 264 226 227 220 232 236 238 220 200 214 220 228 250 259 262 258 258 244 250 253 258
184 182 204 202 190 188 196 174 126 167 155 166 151 165 180 178 194 190 192 164 194 204 218 229 253 244 233 198 222 218 233 236 272 240 257 264 256 264 271 274 266 251 243 264 258
165 174 193 191 185 170 188 159 176 168 155 145 156 158 170 175 191 187 205 205 209 204 199 212 243 247 241 244 251 252 226 224 227 212 249 251 262 270 293 320 339 330 304 253 271
145 128 188 183 181 162 128 153 168 163 157 146 149 163 164 167 189 199 204 206 184 203 200 199 232 237 255 245 224 235 244 233 241 257 255 256 252 251 254 263 274 280 285 281 304
142 190 157 177 148 151 147 155 151 160 99 116 137 143 150 168 188 192 197 196 193 216 164 207 224 223 236 237 233 202 241 243 247 245 249 242 268 272 269 273 267 297 287 291 300
157 214 129 160 154 147 141 149 143 143 124 138 139 156 148 156 157 179 192 175 210 203 187 186 233 249 246 253 257 268 249 247 255 255 253 260 253 269 263 268 285 286 285 294 296
168 135 113 114 140 139 143 168 155 121 150 139 150 155 145 154 174 170 172 186 181 191 201 178 218 192 269 264 264 270 268 261 254 239 249 260 271 268 275 283 284 293 297 294 291
160 152 129 145 145 138 158 151 148 121 34 143 134 132 125 153 146 150 145 111 148 182 196 206 227 153 245 236 240 255 248 257 260 255 251 245 252 266 272 265 270 278 275 271 275